Weather in Mityakinskaya

Russia / Rostov Oblast     48°36′35″N   39°47′09″E
temp.,
°C
wind,
m/s
gust,
m/s
humid.,
%
clouds,
%
prec.,
mm/h
press.,
hPa
HPBL,
m
26 january, tue
tue2600:00+1se8158299 0.0 1014339
03:00+1se6148099 0.0 1012443
06:00+1sse81579100 0.3 1013422
09:00+3sse61393100 0.8 1014380
12:00+6ssw5117763 0.0 1015672
15:00+4s388381 0.0 1015256
18:00+2se5892100 0.0 1016152
21:00+2se71197100 0.0 1015310
27 january, wed
wed2700:00+3se61690100 0.0 1015375
03:00+3sse51481100 0.0 1013360
06:00+2se51182100 0.0 1012270
09:00+3se61484100 0.0 1011359
12:00+4se71277100 0.0 1012352
15:00+4se61180100 0.0 1010374
18:00+3se71487100 0.1 1009391
21:00+2se51493100 0.1 1009570
28 january, thu
thu2800:00+2se71391100 0.0 1008511
03:00+2ese71393100 0.0 1007405
06:00+2se61293100 0.0 1006418
09:00+2se61092100 0.0 1007478
12:00+3se7988100 0.0 1007429
15:00+4se5886100 0.0 1006411
18:00+3se2293100 0.1 100744
21:00+3se3498100 2.1 1007119
29 january, fri
fri2900:00+2ssw2492100 0.3 100883
03:00+1ssw3586100 0.3 1009102
06:000ssw388685 0.0 1008230
09:00+1s5138558 0.0 1007589
12:00+4ssw913678 0.0 10061369
15:00+4ssw9146749 0.2 10051558
18:00+1ssw71481100 0.1 1005894
21:00+1sw71486100 0.1 1006944
30 january, sat
sat3000:00+1sw71475100 0.0 1006949
03:00+2sw91694100 0.1 1005953
06:00+3sw81590100 0.3 1004883
09:00+2wsw61297100 0.6 1006725
12:00+3wsw3897100 1.8 1007500
15:00+3ssw3997100 2.3 1006424
18:00+4ssw71587100 0.1 1005807
21:00+4s41387100 0.1 1004696